| time (UTC) | temp C | wind direction | speed KPH | gust KPH | rain 1hr cm | rain 24hr cm | rain mn cm | humidity % | barometer mb |
| 20260504070304 | 8 | 88 | 1.6 | 9.7 | 0.00 | 0.00 | 0.00 | 58 | 1017.6 |
| 20260504050304 | 11 | 122 | 6.4 | 20.9 | 0.00 | 0.00 | 0.00 | 45 | 1016.5 |
| 20260504045804 | 11 | 103 | 8.0 | 16.1 | 0.00 | 0.00 | 0.00 | 45 | 1016.7 |
| 20260504045304 | 11 | 134 | 8.0 | 14.5 | 0.00 | 0.00 | 0.00 | 45 | 1016.7 |
| 20260504044804 | 11 | 116 | 9.7 | 24.1 | 0.00 | 0.00 | 0.00 | 44 | 1016.3 |
| 20260504044304 | 11 | 137 | 8.0 | 16.1 | 0.00 | 0.00 | 0.00 | 44 | 1016.3 |
| 20260504043804 | 11 | 116 | 9.7 | 25.7 | 0.00 | 0.00 | 0.00 | 43 | 1016.5 |
| 20260504043304 | 11 | 126 | 9.7 | 22.5 | 0.00 | 0.00 | 0.00 | 42 | 1016.3 |
| 20260504042804 | 11 | 121 | 8.0 | 19.3 | 0.00 | 0.00 | 0.00 | 42 | 1016.5 |
| 20260504041805 | 11 | 91 | 9.7 | 20.9 | 0.00 | 0.00 | 0.00 | 42 | 1016.1 |
| 20260504041305 | 11 | 99 | 9.7 | 19.3 | 0.00 | 0.00 | 0.00 | 41 | 1016.0 |
| 20260504040304 | 12 | 122 | 8.0 | 19.3 | 0.00 | 0.00 | 0.00 | 38 | 1015.7 |
| 20260504035804 | 12 | 130 | 8.0 | 24.1 | 0.00 | 0.00 | 0.00 | 38 | 1015.5 |
| 20260504035305 | 12 | 111 | 8.0 | 20.9 | 0.00 | 0.00 | 0.00 | 37 | 1015.5 |
| 20260504034804 | 12 | 120 | 8.0 | 19.3 | 0.00 | 0.00 | 0.00 | 37 | 1015.4 |
| 20260504034305 | 12 | 89 | 11.3 | 27.4 | 0.00 | 0.00 | 0.00 | 37 | 1015.2 |
| 20260504033804 | 12 | 125 | 6.4 | 14.5 | 0.00 | 0.00 | 0.00 | 37 | 1015.3 |
| 20260504033304 | 12 | 123 | 8.0 | 20.9 | 0.00 | 0.00 | 0.00 | 37 | 1015.2 |
| 20260504032804 | 12 | 190 | 6.4 | 25.7 | 0.00 | 0.00 | 0.00 | 37 | 1015.1 |
| 20260504032304 | 12 | 156 | 9.7 | 24.1 | 0.00 | 0.00 | 0.00 | 36 | 1014.5 |
| 20260504031804 | 12 | 132 | 4.8 | 19.3 | 0.00 | 0.00 | 0.00 | 36 | 1014.5 |
| 20260504031304 | 13 | 125 | 11.3 | 24.1 | 0.00 | 0.00 | 0.00 | 36 | 1014.5 |
| 20260504030304 | 13 | 141 | 8.0 | 25.7 | 0.00 | 0.00 | 0.00 | 35 | 1014.4 |
| 20260504025803 | 13 | 128 | 4.8 | 14.5 | 0.00 | 0.00 | 0.00 | 36 | 1014.2 |
| 20260504025304 | 13 | 100 | 3.2 | 12.9 | 0.00 | 0.00 | 0.00 | 36 | 1014.2 |
| 20260504024804 | 13 | 123 | 4.8 | 16.1 | 0.00 | 0.00 | 0.00 | 36 | 1014.0 |
| 20260504024304 | 13 | 104 | 4.8 | 11.3 | 0.00 | 0.00 | 0.00 | 36 | 1013.9 |
| 20260504023304 | 13 | 116 | 4.8 | 11.3 | 0.00 | 0.00 | 0.00 | 36 | 1013.8 |
| 20260504022803 | 14 | 132 | 4.8 | 14.5 | 0.00 | 0.00 | 0.00 | 35 | 1013.6 |
| 20260504022305 | 14 | 122 | 4.8 | 16.1 | 0.00 | 0.00 | 0.00 | 35 | 1013.5 |
| 20260504021305 | 14 | 139 | 9.7 | 19.3 | 0.00 | 0.00 | 0.00 | 34 | 1013.4 |
| 20260504020304 | 15 | 119 | 9.7 | 22.5 | 0.00 | 0.00 | 0.00 | 34 | 1013.2 |
| 20260504015804 | 15 | 135 | 9.7 | 22.5 | 0.00 | 0.00 | 0.00 | 34 | 1013.2 |
| 20260504014804 | 15 | 119 | 4.8 | 16.1 | 0.00 | 0.00 | 0.00 | 34 | 1012.8 |
| 20260504014305 | 15 | 110 | 8.0 | 20.9 | 0.00 | 0.00 | 0.00 | 33 | 1012.9 |
| 20260504013303 | 16 | 103 | 9.7 | 24.1 | 0.00 | 0.00 | 0.00 | 32 | 1012.5 |
| 20260504012304 | 16 | 115 | 9.7 | 25.7 | 0.00 | 0.00 | 0.00 | 32 | 1012.4 |
| 20260504011804 | 17 | 114 | 9.7 | 20.9 | 0.00 | 0.00 | 0.00 | 32 | 1012.3 |
| 20260504011304 | 17 | 91 | 11.3 | 25.7 | 0.00 | 0.00 | 0.00 | 32 | 1012.2 |
| 20260504010804 | 17 | 110 | 9.7 | 25.7 | 0.00 | 0.00 | 0.00 | 32 | 1012.0 |
| 20260504010304 | 17 | 132 | 8.0 | 20.9 | 0.00 | 0.00 | 0.00 | 31 | 1012.0 |
| 20260504005305 | 17 | 101 | 11.3 | 25.7 | 0.00 | 0.00 | 0.00 | 31 | 1012.1 |
| 20260504004804 | 18 | 119 | 9.7 | 24.1 | 0.00 | 0.00 | 0.00 | 31 | 1011.9 |
| 20260504003804 | 18 | 130 | 8.0 | 24.1 | 0.00 | 0.00 | 0.00 | 31 | 1011.9 |
| 20260504003304 | 18 | 145 | 9.7 | 25.7 | 0.00 | 0.00 | 0.00 | 31 | 1011.9 |
| 20260504002804 | 18 | 115 | 8.0 | 27.4 | 0.00 | 0.00 | 0.00 | 31 | 1011.7 |
| 20260504001804 | 18 | 131 | 11.3 | 22.5 | 0.00 | 0.00 | 0.00 | 31 | 1011.9 |
| 20260504001304 | 18 | 152 | 11.3 | 20.9 | 0.00 | 0.00 | 0.00 | 32 | 1011.9 |
| 20260504000304 | 18 | 160 | 8.0 | 25.7 | 0.00 | 0.00 | 0.00 | 31 | 1011.6 |
| 20260503235804 | 18 | 122 | 9.7 | 24.1 | 0.00 | 0.00 | 0.00 | 31 | 1011.6 |
| 20260503235304 | 18 | 122 | 9.7 | 24.1 | 0.00 | 0.00 | 0.00 | 31 | 1011.5 |
| 20260503234804 | 19 | 154 | 12.9 | 24.1 | 0.00 | 0.00 | 0.00 | 30 | 1011.5 |
| 20260503233803 | 19 | 99 | 11.3 | 24.1 | 0.00 | 0.00 | 0.00 | 30 | 1011.4 |
| 20260503233304 | 19 | 109 | 11.3 | 24.1 | 0.00 | 0.00 | 0.00 | 30 | 1011.5 |
| 20260503232804 | 19 | 117 | 11.3 | 24.1 | 0.00 | 0.00 | 0.00 | 30 | 1011.4 |
| 20260503231804 | 19 | 133 | 8.0 | 27.4 | 0.00 | 0.00 | 0.00 | 30 | 1011.4 |
| 20260503231304 | 19 | 125 | 11.3 | 22.5 | 0.00 | 0.00 | 0.00 | 29 | 1011.3 |
| 20260503230804 | 20 | 107 | 9.7 | 22.5 | 0.00 | 0.00 | 0.00 | 29 | 1011.3 |
| 20260503230304 | 20 | 122 | 12.9 | 25.7 | 0.00 | 0.00 | 0.00 | 28 | 1011.3 |
| 20260503225804 | 20 | 110 | 9.7 | 27.4 | 0.00 | 0.00 | 0.00 | 29 | 1011.3 |
| 20260503225305 | 20 | 158 | 11.3 | 20.9 | 0.00 | 0.00 | 0.00 | 29 | 1011.3 |
| 20260503224804 | 20 | 118 | 12.9 | 27.4 | 0.00 | 0.00 | 0.00 | 28 | 1011.5 |
| 20260503224304 | 20 | 99 | 11.3 | 24.1 | 0.00 | 0.00 | 0.00 | 28 | 1011.6 |
| 20260503223804 | 20 | 106 | 9.7 | 22.5 | 0.00 | 0.00 | 0.00 | 28 | 1011.3 |
| 20260503223304 | 20 | 125 | 11.3 | 22.5 | 0.00 | 0.00 | 0.00 | 28 | 1011.2 |
| 20260503222804 | 21 | 142 | 9.7 | 22.5 | 0.00 | 0.00 | 0.00 | 27 | 1011.3 |
| 20260503222304 | 21 | 149 | 9.7 | 22.5 | 0.00 | 0.00 | 0.00 | 27 | 1011.3 |
| 20260503221804 | 21 | 185 | 9.7 | 20.9 | 0.00 | 0.00 | 0.00 | 27 | 1011.0 |
| 20260503221304 | 21 | 165 | 8.0 | 12.9 | 0.00 | 0.00 | 0.00 | 26 | 1011.1 |
| 20260503220804 | 21 | 141 | 3.2 | 20.9 | 0.00 | 0.00 | 0.00 | 25 | 1011.0 |
| 20260503220303 | 21 | 112 | 4.8 | 16.1 | 0.00 | 0.00 | 0.00 | 25 | 1011.0 |
| 20260503215804 | 21 | 132 | 9.7 | 20.9 | 0.00 | 0.00 | 0.00 | 26 | 1011.0 |
| 20260503215304 | 21 | 134 | 3.2 | 16.1 | 0.00 | 0.00 | 0.00 | 25 | 1011.2 |
| 20260503214804 | 21 | 141 | 4.8 | 16.1 | 0.00 | 0.00 | 0.00 | 25 | 1011.1 |
| 20260503214304 | 21 | 151 | 4.8 | 16.1 | 0.00 | 0.00 | 0.00 | 25 | 1011.1 |
| 20260503213804 | 21 | 157 | 3.2 | 12.9 | 0.00 | 0.00 | 0.00 | 26 | 1011.1 |
| 20260503213304 | 21 | 129 | 4.8 | 16.1 | 0.00 | 0.00 | 0.00 | 25 | 1011.3 |
| 20260503212804 | 21 | 104 | 8.0 | 20.9 | 0.00 | 0.00 | 0.00 | 26 | 1011.2 |
| 20260503212305 | 21 | 135 | 4.8 | 16.1 | 0.00 | 0.00 | 0.00 | 25 | 1011.3 |
| 20260503211804 | 21 | 106 | 4.8 | 16.1 | 0.00 | 0.00 | 0.00 | 26 | 1011.4 |
| 20260503211304 | 20 | 98 | 4.8 | 16.1 | 0.00 | 0.00 | 0.00 | 26 | 1011.3 |
| 20260503210804 | 20 | 103 | 8.0 | 14.5 | 0.00 | 0.00 | 0.00 | 26 | 1011.3 |
| 20260503210303 | 20 | 162 | 3.2 | 12.9 | 0.00 | 0.00 | 0.00 | 25 | 1011.4 |
| 20260503205804 | 20 | 116 | 4.8 | 14.5 | 0.00 | 0.00 | 0.00 | 26 | 1011.5 |
| 20260503205304 | 20 | 169 | 4.8 | 14.5 | 0.00 | 0.00 | 0.00 | 26 | 1011.5 |
| 20260503204804 | 20 | 136 | 4.8 | 12.9 | 0.00 | 0.00 | 0.00 | 25 | 1011.7 |
| 20260503204304 | 20 | 127 | 8.0 | 16.1 | 0.00 | 0.00 | 0.00 | 26 | 1011.5 |
| 20260503203804 | 20 | 134 | 8.0 | 11.3 | 0.00 | 0.00 | 0.00 | 25 | 1011.8 |
| 20260503203304 | 20 | 107 | 3.2 | 14.5 | 0.00 | 0.00 | 0.00 | 26 | 1011.7 |
| 20260503202804 | 20 | 137 | 4.8 | 14.5 | 0.00 | 0.00 | 0.00 | 26 | 1011.7 |
| 20260503202304 | 20 | 166 | 6.4 | 14.5 | 0.00 | 0.00 | 0.00 | 26 | 1011.9 |
| 20260503201803 | 20 | 163 | 6.4 | 12.9 | 0.00 | 0.00 | 0.00 | 26 | 1011.9 |
| 20260503200804 | 20 | 104 | 8.0 | 14.5 | 0.00 | 0.00 | 0.00 | 26 | 1011.8 |
| 20260503200303 | 20 | 134 | 4.8 | 12.9 | 0.00 | 0.00 | 0.00 | 27 | 1011.8 |
| 20260503195803 | 20 | 111 | 6.4 | 19.3 | 0.00 | 0.00 | 0.00 | 26 | 1011.9 |
| 20260503195305 | 20 | 131 | 8.0 | 22.5 | 0.00 | 0.00 | 0.00 | 25 | 1012.0 |
| 20260503194804 | 20 | 137 | 3.2 | 12.9 | 0.00 | 0.00 | 0.00 | 26 | 1012.2 |
| 20260503194304 | 21 | 164 | 4.8 | 14.5 | 0.00 | 0.00 | 0.00 | 25 | 1012.2 |
| 20260503193804 | 21 | 128 | 6.4 | 11.3 | 0.00 | 0.00 | 0.00 | 25 | 1012.4 |
| 20260503193304 | 21 | 133 | 4.8 | 19.3 | 0.00 | 0.00 | 0.00 | 25 | 1012.3 |
| 20260503192804 | 21 | 102 | 4.8 | 14.5 | 0.00 | 0.00 | 0.00 | 25 | 1012.4 |
| 20260503192305 | 21 | 116 | 8.0 | 19.3 | 0.00 | 0.00 | 0.00 | 25 | 1012.4 |
| 20260503191304 | 21 | 136 | 1.6 | 32.2 | 0.00 | 0.00 | 0.00 | 24 | 1012.6 |
| 20260503190805 | 21 | 110 | 4.8 | 32.2 | 0.00 | 0.00 | 0.00 | 26 | 1012.5 |
| 20260503190303 | 21 | 112 | 4.8 | 9.7 | 0.00 | 0.00 | 0.00 | 24 | 1012.8 |
| 20260503185804 | 20 | 80 | 3.2 | 14.5 | 0.00 | 0.00 | 0.00 | 26 | 1012.7 |
| 20260503185305 | 20 | 101 | 3.2 | 9.7 | 0.00 | 0.00 | 0.00 | 25 | 1012.8 |
| 20260503184805 | 20 | 106 | 3.2 | 20.9 | 0.00 | 0.00 | 0.00 | 25 | 1013.1 |
| 20260503184304 | 21 | 102 | 9.7 | 14.5 | 0.00 | 0.00 | 0.00 | 25 | 1013.0 |
| 20260503183805 | 21 | 100 | 9.7 | 19.3 | 0.00 | 0.00 | 0.00 | 26 | 1013.0 |
| 20260503183304 | 21 | 102 | 6.4 | 16.1 | 0.00 | 0.00 | 0.00 | 25 | 1013.2 |
| 20260503182804 | 21 | 113 | 6.4 | 16.1 | 0.00 | 0.00 | 0.00 | 26 | 1013.3 |
| 20260503182305 | 20 | 91 | 8.0 | 16.1 | 0.00 | 0.00 | 0.00 | 26 | 1013.1 |
| 20260503181304 | 20 | 111 | 8.0 | 19.3 | 0.00 | 0.00 | 0.00 | 25 | 1013.2 |
| 20260503180305 | 21 | 108 | 6.4 | 22.5 | 0.00 | 0.00 | 0.00 | 25 | 1013.3 |
| 20260503175804 | 21 | 115 | 8.0 | 16.1 | 0.00 | 0.00 | 0.00 | 26 | 1013.4 |
| 20260503175305 | 21 | 94 | 8.0 | 19.3 | 0.00 | 0.00 | 0.00 | 25 | 1013.4 |
| 20260503174803 | 21 | 119 | 8.0 | 19.3 | 0.00 | 0.00 | 0.00 | 23 | 1013.6 |
| 20260503173804 | 21 | 95 | 6.4 | 22.5 | 0.00 | 0.00 | 0.00 | 24 | 1013.7 |
| 20260503173304 | 21 | 103 | 6.4 | 20.9 | 0.00 | 0.00 | 0.00 | 25 | 1013.7 |
| 20260503172804 | 21 | 52 | 8.0 | 19.3 | 0.00 | 0.00 | 0.00 | 24 | 1013.9 |
| 20260503172305 | 21 | 108 | 9.7 | 22.5 | 0.00 | 0.00 | 0.00 | 24 | 1013.9 |
| 20260503171304 | 21 | 117 | 8.0 | 20.9 | 0.00 | 0.00 | 0.00 | 23 | 1013.8 |
| 20260503170804 | 22 | 73 | 4.8 | 11.3 | 0.00 | 0.00 | 0.00 | 24 | 1014.2 |
| 20260503170304 | 22 | 100 | 4.8 | 20.9 | 0.00 | 0.00 | 0.00 | 23 | 1013.9 |
| 20260503150304 | 16 | 27 | 3.2 | 4.8 | 0.00 | 0.00 | 0.00 | 35 | 1014.5 |
| 20260503140304 | 11 | 58 | 1.6 | 3.2 | 0.00 | 0.00 | 0.00 | 43 | 1014.7 |
| 20260503131305 | 8 | 9 | 1.6 | 3.2 | 0.00 | 0.00 | 0.00 | 44 | 1014.5 |
| 20260503130804 | 8 | 39 | 1.6 | 3.2 | 0.00 | 0.00 | 0.00 | 44 | 1014.5 |
| 20260503130304 | 8 | 6 | 1.6 | 4.8 | 0.00 | 0.00 | 0.00 | 45 | 1014.7 |
| 20260503110804 | 7 | 73 | 1.6 | 4.8 | 0.00 | 0.00 | 0.00 | 45 | 1015.0 |
| 20260503110304 | 8 | 68 | 1.6 | 4.8 | 0.00 | 0.00 | 0.00 | 43 | 1015.1 |
| 20260503081305 | 8 | 80 | 1.6 | 4.8 | 0.00 | 0.00 | 0.00 | 40 | 1014.9 |
| 20260503080803 | 8 | 47 | 3.2 | 8.0 | 0.00 | 0.00 | 0.00 | 40 | 1015.0 |